Location: Unspecified
(37.6100°N, 2.7800°W)
Time: 01:17:23
(UTC+00:00)

ISS - Visible Passes

Search period start: 17 January 2018 00:00
Search period end: 27 January 2018 00:00
Orbit: 401 x 406 km, 51.6° (Epoch: 17 January)

Date Brightness Start Highest point End Pass type
(mag) Time Alt. Az. Time Alt. Az. Time Alt. Az.
17 Jan -3.1 05:52:32 38° SW 05:52:32 38° SW 05:55:30 10° SSE visible
18 Jan -0.9 05:02:40 15° SE 05:02:40 15° SE 05:03:21 10° SE visible
19 Jan -1.2 05:45:34 11° SSW 05:45:34 11° SSW 05:45:44 10° SSW visible
22 Jan -0.7 19:41:39 10° SSW 19:41:48 11° SSW 19:41:48 11° SSW visible
23 Jan -2.4 18:49:44 10° S 18:52:00 24° SE 18:52:00 24° SE visible
24 Jan -1.5 17:58:45 10° SSE 18:00:08 12° SE 18:01:32 10° ESE visible
24 Jan -1.8 19:33:02 10° WSW 19:34:48 28° WSW 19:34:48 28° WSW visible
25 Jan -3.9 18:40:29 10° SW 18:43:42 68° SE 18:44:49 37° ENE visible
26 Jan -1.9 19:24:56 10° W 19:27:24 25° NW 19:27:24 25° NW visible
